COSMOS 2251 DEB, 47052

Orbit data source: Space-Track

COSMOS 2251 DEB, 47052 is space debris in LEO originally from a launch on Wed, 16 Jun 1993 UTC launched from the Plesetsk Missile And Space Complex (PKMTR). The debris from Iridium 33, an American commercial communications satellite, has been tracked extensively since its accidental collision with the defunct Russian satellite Cosmos 2251 in 2009. This event, occurring at high speed in low Earth orbit (LEO), generated thousands of pieces of space debris, significantly increasing the risk of further collisions. The Iridium 33 debris cloud has impacted space traffic management and orbital debris mitigation strategies, making it a subject of ongoing study in space situational awareness.

Loading next visibility...
Identifier
47052, 1993-036BXG
Orbit
LEO
Country
Flag of CISCIS
Related business
Manufacturer
Unknown
Mission
Spacecraft
Bus & Motor
Unknown
Mass
Unknown
Launch date (UTC)
1993-06-16 (33 years ago)
Launch vehicle
Unknown
Launch site
Plesetsk Missile And Space Complex (PKMTR)
Object type
Payload
Rocket body
Debris
Shape & HBR
Unknown shape, 0.1 m
Radar Cross Section
Small (<0.1 m²)

Expand to show TLE details & history
Last TLE update: 1 week ago

TLE from 1 week ago
0 COSMOS 2251 DEB
1 47052U 93036BXG 26166.80703984  .00000448  00000-0  16049-3 0  9998
2 47052  74.0489   1.0216 0058987  30.4491 340.9638 14.35781630644454
Epoch: 2026-06-15T19:22Z
TLE epoch observation values (Epoch: 2026-06-15T19:22:08.242Z)
Latitude
10.71027°
Longitude
169.4814°
Altitude
734.475 km
Speed
7.51 km/s
True Right ascension
00h 16m 24s
True Declination
10° 38' 51"
Sunlit
Object was in daylight at epoch
Visualization orbit readout
Latitude
Unknown
Longitude
Unknown
Altitude
Unknown
Speed
Unknown
Apparent Right ascension
Unknown
Apparent Declination
Unknown
Sunlit
N/A
Visualization observer readout
Local Sidereal Time
21:55:06
Azimuth
Unknown
Elevation
Unknown
Doppler factor
Unknown
Orbital elements
Apogee altitude
812.258 km
Perigee altitude
727.928 km
Semi-major axis
7,148.23 km
Eccentricity
0.0059
Inclination
74.0489°
RAAN
1.0216°
Arg. of periapsis
30.4491°
True anomaly
340.74178°
Mean anomaly
340.9638°
Eccentric anomaly
340.85295°
Mean motion
3.59125 °/min
Orbital period
100.24 mins
BSTAR
0.00016049

Documentation

Showing up to 5 results
|